مشهد, ایران

11:20 PM +0330 on سپتامبر 23, 2017 (GMT +0330)
Shahid Hashemi Nejad International | | Change Station

Elev 3245 ft 36.27 °N, 59.63 °E | Updated 20 minutes ago

صاف
صاف
68 °F
Feels Like 68 °F
N
7
باد متغير باد from SSW

امروز
High -- | Low -- °F
--% Chance of Precip.
دیروز
High -- | Low -- °F
Precip. -- در
فشار 30.12 در
ديد -9999.0 مايل، ميل (در برابر كيلومتر
ابری
قطره شبنم 25 °F
رطوبت 20%
بارش باران 0.00 در
برف عمیق Not available.
5:21 AM 5:28 PM
Waxing Crescent, 13% visible
METAR OIMM 231930Z 20006KT CAVOK 20/M04 Q1020 A3013
فشار 30.12 در
ديد -9999.0 مايل، ميل (در برابر كيلومتر
ابری
قطره شبنم 25 °F
رطوبت 20%
بارش باران 0.00 در
برف عمیق Not available.
5:21 AM 5:28 PM
Waxing Crescent, 13% visible
METAR OIMM 231930Z 20006KT CAVOK 20/M04 Q1020 A3013

Get Severe Weather Alerts

Thanks for signing up!

Be on the lookout for a verification email in your inbox.

You'll start receiving the daily forecast at 6 AM.

×

10-Day Weather Forecast

No radar image for this location.
×

Almanac

ستاره شناسی

Sep. 23, 2017 Rise Set
وقت حقیقی
تاریک و روشن اجتماعی
تاریک روشن دریایی
شفق و فلق نجومی
ماه
میزان روشنایی روز
طول روز
Tomorrow will be .
, % of the Moon is Illuminated

Today's Extremes

Country Highs Country Lows

Community

WunderPhotos

Category 6

Welcome to Category 6. This is the collective home for Weather Underground's featured writeups by Dr. Jeff Masters (right), Bob Henson (left), Chris Burt, and other regular contributors.

Nearby

تمیزی هوا

  تمیزی هوا AQ Index آلاینده
Not available.

عمق برف

Station Depth Elevation

Earthquake Activity

شهر Distance Mag. Time & Date
Minimum magnitude displayed is 2.5.

Coastal Water Temperatures

منطقه درجه حرارت

Stations

Nearby Weather Stations

Station Location دما باد سرد قطره شبنم رطوبت باد Precip. Elev ارتقا دادن Type